{"data":{"norad_id":61560,"intl_designator":"2024-185J","name":"QIANFAN-27","alt_names":[],"object_type":"PAYLOAD","status":"ACTIVE","operator":null,"country":"PRC","launch_date":"2024-10-15","launch_site_code":"TAISC","launch_vehicle":null,"mission":null,"orbit_class":"UNKNOWN","rcs_meters":null,"size_class":null,"mass_kg":null,"dimensions":null,"purposes":[],"wikipedia_slug":null,"has_3d_model":false,"image_url":null,"decayed_at":null,"tle_current":{"epoch":"2026-09-22T20:31:25.894848Z","epoch_age_seconds":93962,"freshness":"FRESH","line1":"1 61560U 24185J   26265.85516082  .00000503  00000+0  19834-3 0  9999","line2":"2 61560  88.9850  43.6484 0009392  81.2105 279.0153 14.27606218110698","mean_motion":14.27606218,"eccentricity":0.0009392,"inclination_deg":88.985,"raan_deg":43.6484,"arg_perigee_deg":81.2105,"mean_anomaly_deg":279.0153,"bstar":0.00019834,"rev_number":11069,"period_min":100.86815130417,"perigee_km":793.00198470411,"apogee_km":806.48491534143,"semimajor_km":7177.8804500228,"source":"CELESTRAK","updated_at":"2026-09-23T09:00:20.904904Z"}}}